This is the latest recevied weather packets stored in our database for station/object AB8Y-13. If no packets are shown the sender has not sent any weather packets the latest 10 day(s).
| Time | Temp. | Humidity | Pressure | Rain* | Wind** | Luminosity | Snow |
|---|---|---|---|---|---|---|---|
| 1777103033 | 13.33° C | 97% | 1008.9 hPa | 0 mm | - | 0 W/m² | - |
| 1777102730 | 13.89° C | 97% | 1008.7 hPa | 0 mm | - | 0 W/m² | - |
| 1777102425 | 13.89° C | 97% | 1008.7 hPa | 0 mm | - | 0 W/m² | - |
| 1777102122 | 13.89° C | 97% | 1008.8 hPa | 0 mm | - | 0 W/m² | - |
| 1777101818 | 13.89° C | 97% | 1008.6 hPa | 0 mm | - | 0 W/m² | - |
| 1777101514 | 13.89° C | 97% | 1008.6 hPa | 0 mm | - | 0 W/m² | - |
| 1777101211 | 13.89° C | 97% | 1008.6 hPa | 0 mm | - | 0 W/m² | - |
| 1777100907 | 13.33° C | 97% | 1008.5 hPa | 0 mm | - | 0 W/m² | - |
| 1777100603 | 13.33° C | 97% | 1008.4 hPa | 0 mm | - | 0 W/m² | - |
| 1777100300 | 13.33° C | 97% | 1008.2 hPa | 0 mm | - | 0 W/m² | - |
| 1777099998 | 12.78° C | 97% | 1008.4 hPa | 0 mm | - | 0 W/m² | - |
| 1777099694 | 12.78° C | 97% | 1008.4 hPa | 0 mm | - | 0 W/m² | - |
| 1777099389 | 12.78° C | 97% | 1008.6 hPa | 0 mm | - | 0 W/m² | - |
| 1777099087 | 12.22° C | 97% | 1008.5 hPa | 0 mm | - | 0 W/m² | - |
| 1777098784 | 12.78° C | 97% | 1008.4 hPa | 0 mm | - | 0 W/m² | - |
| 1777098484 | 12.78° C | 97% | 1008.4 hPa | 0 mm | - | 0 W/m² | - |
| 1777098182 | 12.22° C | 97% | 1008.4 hPa | 0 mm | - | 0 W/m² | - |
| 1777097879 | 12.78° C | 97% | 1008.5 hPa | 0 mm | - | 0 W/m² | - |
| 1777097576 | 12.22° C | 97% | 1008.3 hPa | 0 mm | - | 0 W/m² | - |
| 1777097273 | 12.78° C | 97% | 1008.5 hPa | 0 mm | - | 0 W/m² | - |
| 1777096970 | 12.78° C | 97% | 1008.6 hPa | 0 mm | - | 0 W/m² | - |
| 1777096670 | 12.78° C | 97% | 1008.3 hPa | 0 mm | - | 0 W/m² | - |
| 1777096369 | 13.33° C | 97% | 1008.3 hPa | 0 mm | - | 0 W/m² | - |
| 1777096065 | 13.33° C | 97% | 1008.4 hPa | 0 mm | - | 0 W/m² | - |
| 1777095761 | 13.33° C | 97% | 1008.4 hPa | 0 mm | - | 0 W/m² | - |
* Rain latest hour (hover to see other rain measurements)
** Current wind speed in m/s (hover to see current wind gust speed)